Dewpoint
43 44 43 44 44 45 46 47 49 50 50 50 50 50 49 51 52 52 52 51 51 50 50 49 51 52 50 31 17 34 41 51 39 28 16 15 22 23 25 27 33 34 32 29 28 31 32
43 43 42 43 44 44 45 46 46 46 46 47 49 50 50 50 51 51 51 51 50 49 49 50 53 52 42 20 12 28 35 44 32 23 15 16 19 22 24 25 30 34 33 29 29 34 34
41 41 42 43 43 43 43 44 44 44 44 45 47 48 49 49 49 50 50 50 49 48 49 52 53 48 34 22 16 30 28 28 32 23 14 15 19 18 20 23 28 33 30 29 28 34 34
42 41 41 41 42 42 43 43 43 43 44 44 45 47 47 49 49 49 49 49 47 48 52 51 52 43 30 17 18 19 28 28 23 21 15 13 21 20 18 19 27 29 29 26 28 32 34
41 42 42 41 40 41 42 42 42 43 43 43 44 45 46 47 48 48 48 47 46 50 53 52 51 41 23 21 16 16 16 15 22 18 16 16 22 23 19 18 25 25 23 25 26 29 33
40 40 40 41 42 42 41 41 42 43 43 43 43 44 45 46 47 47 46 43 46 49 50 48 44 37 32 12 20 27 27 21 24 19 20 27 25 22 19 19 15 17 20 22 24 30 32
39 39 39 40 40 40 40 41 41 42 43 43 43 43 44 45 46 46 45 28 26 37 28 29 32 32 30 19 25 22 27 24 26 17 13 21 20 17 14 17 18 12 14 19 20 22 33
39 39 40 40 39 40 40 40 41 42 42 43 43 43 44 44 45 46 38 31 33 34 30 26 23 24 26 26 28 24 24 23 26 22 13 15 20 19 16 14 15 16 16 15 19 22 23
38 39 38 40 40 40 40 40 41 41 42 43 43 43 44 44 45 42 38 37 40 39 34 25 26 25 18 19 23 22 15 23 21 24 18 14 16 18 17 16 13 16 19 18 18 20 22
38 38 38 39 39 39 41 42 41 41 42 43 43 43 44 42 38 35 37 39 42 44 30 6 27 29 30 22 22 24 14 19 20 20 22 19 18 20 19 15 14 12 21 20 19 18 17
37 38 38 38 39 38 40 41 42 42 42 43 43 43 43 42 35 33 35 39 43 46 18 1 15 26 23 23 13 10 19 14 15 16 19 20 19 20 20 19 18 16 19 19 21 21 19
37 37 38 39 41 40 39 40 41 42 42 43 43 43 43 31 32 30 31 42 44 34 9 -5 3 10 16 20 19 14 16 11 15 13 15 17 17 19 19 19 20 20 17 20 21 23 20
36 36 37 39 40 40 40 40 41 42 43 43 44 43 41 34 30 32 37 40 29 27 3 -11 -15 -13 -9 -1 3 12 11 14 12 9 11 12 15 17 19 18 19 17 17 20 19 22 19
35 36 37 38 40 41 43 41 42 43 43 44 44 42 37 32 36 34 38 27 26 15 5 -2 -8 -11 -13 -12 -9 -3 3 9 12 12 7 8 8 15 17 20 18 17 19 22 18 15 16
35 35 35 38 41 41 43 42 42 42 44 44 42 35 33 32 39 36 29 20 17 6 -1 -4 -5 -7 -9 -8 -5 -5 -1 2 6 7 10 7 6 8 14 17 20 17 19 22 21 21 18
34 34 34 37 39 41 41 42 42 42 43 43 34 34 31 34 39 35 24 13 10 8 5 5 3 -0 -4 -7 -5 -6 -4 -3 6 6 6 11 10 7 6 14 19 18 21 21 23 21 17
34 35 33 34 38 40 41 41 42 42 43 43 34 28 32 36 37 33 26 20 17 14 13 8 7 7 6 5 1 5 0 -3 -1 7 8 6 12 13 9 10 15 19 18 20 22 22 19
35 34 34 35 37 38 40 40 40 42 42 40 34 28 35 36 30 29 23 21 20 17 16 14 14 12 13 13 13 12 7 5 1 -1 6 8 14 13 11 11 15 17 18 19 20 20 21
35 35 34 34 35 37 39 38 38 40 41 39 33 29 30 33 24 22 20 18 16 14 13 13 12 13 14 13 16 15 15 18 17 6 6 11 12 14 13 12 14 18 18 19 22 22 20
34 33 35 34 33 37 38 39 37 38 39 39 32 25 25 31 29 24 20 18 15 15 13 13 12 14 16 14 14 24 23 16 21 18 18 23 17 14 18 14 15 16 17 18 22 21 23
32 32 33 33 33 33 36 38 38 36 38 38 33 25 24 22 24 25 23 21 19 16 15 14 14 12 17 16 13 17 23 19 22 24 25 23 17 19 16 15 11 12 15 17 16 21 21
32 31 32 32 33 33 33 37 38 36 36 37 31 29 28 23 23 23 23 22 17 15 13 13 18 16 18 19 24 17 19 21 20 24 32 31 21 19 18 16 13 10 9 16 15 14 18
31 31 32 32 31 33 34 36 38 39 35 35 34 34 32 26 23 20 20 19 18 17 20 24 22 21 21 25 23 27 27 24 23 29 27 31 30 21 19 17 14 14 11 7 13 14 13
32 34 35 35 30 32 33 35 37 38 38 36 35 35 29 23 22 19 17 18 21 16 16 15 17 22 29 27 29 33 32 27 28 22 28 29 31 32 22 16 14 16 13 11 8 12 13
33 34 34 34 31 31 33 34 35 37 38 37 35 34 30 24 28 24 17 18 24 19 19 23 21 19 26 28 30 29 27 27 25 17 27 29 31 32 27 22 18 15 14 12 10 10 11
33 33 31 32 32 30 32 32 34 36 37 38 37 37 34 27 22 21 21 20 22 17 20 19 22 26 32 33 30 22 21 18 11 20 24 24 29 31 28 23 18 16 15 14 13 13 10
31 31 31 32 33 32 31 31 33 35 35 37 37 36 34 27 26 25 24 25 21 24 29 27 27 30 35 29 26 24 17 16 12 16 27 27 28 29 32 26 18 17 16 16 15 16 15
31 32 32 31 32 32 32 32 32 34 35 37 38 37 35 30 29 29 28 26 25 26 26 27 30 27 31 27 28 27 18 14 22 20 21 34 29 30 32 26 19 22 26 21 23 26 25
31 31 31 30 31 30 32 32 31 33 36 37 36 37 39 34 32 30 29 28 28 28 28 32 31 32 33 29 29 31 17 13 20 25 22 32 34 32 30 28 38 36 36 37 37 34 34
Wind_Speed
17 17 18 18 18 18 19 19 20 21 21 22 22 24 25 26 27 28 29 29 28 27 26 21 14 9 5 6 12 9 3 5 12 18 22 21 20 20 23 23 20 16 19 8 10 9 12
17 18 19 19 19 19 20 20 20 20 21 22 22 24 26 27 27 29 31 29 29 28 26 18 8 5 5 11 4 3 5 6 15 23 23 23 18 18 20 22 20 12 21 19 12 11 11
15 16 18 18 19 20 20 21 22 23 23 23 24 24 25 27 29 32 33 32 30 25 20 10 5 5 8 16 6 2 2 5 16 22 25 23 21 17 19 20 16 17 15 17 18 15 14
15 16 16 17 18 19 20 21 23 24 24 26 27 28 28 28 31 32 35 34 30 20 9 4 6 8 9 4 6 10 12 10 9 18 24 22 19 18 22 16 13 20 21 24 22 22 16
16 16 17 16 16 17 18 19 21 22 24 26 27 28 31 31 33 35 37 35 27 8 3 5 4 5 9 6 7 6 12 14 8 12 15 16 16 19 21 21 20 23 26 26 25 23 16
15 16 15 16 17 18 19 19 19 21 22 24 26 27 31 32 33 36 39 36 5 6 7 8 9 7 9 5 5 5 4 12 11 15 17 15 16 22 24 25 29 28 27 27 25 20 19
15 16 17 17 17 18 18 19 20 20 21 23 25 27 31 33 33 34 28 7 5 7 6 11 11 15 15 6 8 5 5 11 15 16 24 24 23 31 30 30 29 31 29 28 24 20 22
15 15 16 16 16 17 18 19 20 20 22 23 25 26 30 32 34 29 19 8 8 5 14 15 21 23 28 17 11 16 8 12 19 22 24 24 35 30 27 28 30 31 30 29 19 23 27
14 15 16 17 17 17 18 18 19 19 20 21 24 26 30 33 30 13 15 16 9 8 8 13 15 14 18 18 23 23 20 20 19 25 28 31 29 28 27 26 30 29 31 27 27 20 17
14 14 15 16 17 18 18 18 18 18 19 19 20 22 28 39 10 17 6 15 14 5 7 11 5 4 7 8 12 26 26 22 26 30 30 33 31 26 31 33 28 34 29 28 27 26 29
13 14 16 16 17 17 18 19 19 18 18 18 17 19 25 24 14 10 12 15 12 3 7 2 5 4 1 11 15 5 26 26 30 31 23 40 32 30 37 30 29 33 26 28 26 30 29
14 15 16 17 18 18 18 19 20 20 20 19 17 18 22 10 10 13 17 17 6 0 10 4 3 7 10 14 16 13 7 25 24 29 31 37 30 30 32 30 29 29 28 30 28 28 32
15 16 17 20 20 20 19 18 19 19 20 20 18 20 17 12 10 18 17 9 5 5 8 11 18 19 19 18 21 15 19 19 26 25 33 37 36 34 24 26 29 27 28 27 28 28 34
15 17 18 20 20 21 21 18 18 18 18 18 21 26 10 11 9 14 13 9 9 15 25 30 29 27 28 26 27 26 26 26 30 34 31 32 37 38 34 32 29 28 30 29 29 27 31
16 16 17 19 21 20 19 16 17 17 16 17 23 10 13 9 7 7 10 16 10 12 13 19 29 28 29 24 25 29 32 35 33 31 37 36 40 28 36 33 31 32 34 35 33 29 24
16 16 16 18 20 19 17 16 15 14 13 13 13 9 13 3 3 8 10 20 16 12 20 26 27 18 30 33 30 30 32 35 40 35 34 36 42 36 30 34 36 39 30 29 32 35 36
15 17 18 18 18 19 16 16 15 14 14 10 10 8 9 1 4 5 14 10 15 19 20 14 22 31 30 33 35 34 34 36 39 41 35 39 35 39 34 34 36 32 37 27 29 33 31
14 16 18 19 18 18 17 15 15 15 15 13 3 5 4 5 7 7 16 12 13 26 23 27 27 32 32 36 37 36 39 38 39 44 42 36 34 38 43 31 33 37 38 40 23 35 30
16 15 18 19 19 18 17 15 15 14 10 8 5 14 9 8 12 20 24 29 29 32 29 29 30 31 31 38 39 37 37 38 38 46 43 31 33 37 37 41 31 38 41 35 32 26 36
17 18 19 19 19 19 18 17 15 14 11 7 5 6 6 13 21 24 27 30 31 27 30 29 30 29 33 36 37 33 42 41 39 45 46 28 33 34 38 37 34 34 39 38 35 29 35
17 19 21 21 19 19 19 18 16 13 13 6 6 10 15 18 19 24 24 24 27 31 28 27 30 31 31 37 38 38 41 40 41 36 38 35 38 36 39 45 41 40 38 38 40 43 36
20 21 21 20 20 20 21 20 17 14 13 10 7 5 11 24 28 31 30 34 35 36 34 34 34 34 31 35 32 40 38 39 39 22 15 25 35 38 44 43 45 46 41 39 40 45 43
22 23 21 21 21 20 22 21 20 16 10 6 8 16 17 21 31 31 33 36 34 33 30 24 27 31 33 32 33 36 37 44 41 24 27 18 22 39 41 44 40 44 45 40 40 38 41
24 24 24 22 21 21 22 21 21 20 16 15 11 7 12 28 31 36 34 37 38 36 37 33 31 30 39 30 26 31 36 42 44 39 30 29 32 29 35 40 48 30 38 43 37 33 37
22 22 21 23 23 22 22 22 21 21 22 19 19 13 6 25 26 33 32 31 38 34 32 34 37 30 28 27 26 19 25 36 41 35 32 29 29 15 31 39 29 34 36 38 39 40 34
22 23 24 24 25 23 23 23 24 22 23 20 19 17 11 15 33 31 33 34 36 27 30 33 29 20 23 13 14 28 23 26 34 37 39 38 35 34 24 35 40 31 33 28 25 36 35
24 25 24 25 25 25 25 25 24 24 23 21 20 19 11 11 33 34 26 26 26 20 19 21 20 14 10 11 19 33 35 30 34 29 19 30 28 33 30 27 25 32 27 32 36 29 29
24 24 24 24 24 25 26 26 25 25 24 21 18 15 16 10 32 34 30 27 26 22 24 19 13 14 10 19 16 15 21 28 21 30 32 17 19 21 29 29 21 14 11 19 14 10 12
24 25 25 25 27 27 27 26 26 25 25 21 25 15 15 16 20 18 26 30 26 31 26 15 12 18 5 11 10 7 22 23 28 7 24 10 6 5 15 22 5 10 11 7 1 4 6
Wind_Direction
32 33 31 26 23 19 17 13 12 10 6 360 354 350 346 338 333 329 326 325 322 320 315 319 307 288 271 242 255 134 163 188 190 202 216 213 221 226 234 238 234 226 262 263 274 271 246
29 26 27 22 21 19 18 17 14 9 3 358 353 347 343 337 331 326 322 322 321 317 313 313 290 225 248 265 339 329 279 199 207 202 217 214 222 230 244 252 240 233 250 267 259 250 226
28 23 22 19 18 16 15 14 10 6 2 358 355 348 340 337 332 325 320 320 316 312 307 306 244 233 262 254 324 204 245 257 212 210 214 220 225 235 240 256 243 249 254 250 245 238 234
22 22 19 18 15 13 13 10 6 3 0 357 354 348 342 339 332 325 319 317 312 310 294 271 202 259 270 249 315 263 257 261 246 222 224 219 225 242 238 260 246 227 238 248 230 220 217
16 17 14 12 11 10 9 8 4 1 358 354 352 347 340 337 334 326 319 311 308 281 234 183 219 250 273 125 232 239 235 250 223 214 222 241 223 232 234 234 234 226 236 230 254 218 210
15 11 10 8 8 6 5 4 1 359 356 353 351 347 337 336 334 326 321 309 250 260 221 229 257 266 241 264 348 299 249 217 220 208 215 211 212 223 229 217 227 229 224 243 234 198 213
11 5 2 1 359 359 0 359 358 356 355 353 351 347 336 334 332 323 328 322 312 185 342 282 299 277 282 256 294 230 178 204 203 209 211 209 215 219 221 227 234 246 240 232 233 234 187
6 1 360 360 360 356 356 356 354 355 353 352 349 345 336 331 327 319 19 59 42 326 304 279 257 256 256 266 278 249 198 203 207 217 209 219 226 226 234 242 237 248 255 256 229 242 232
0 1 356 355 354 354 352 350 350 350 352 351 350 345 336 328 324 333 41 35 351 324 273 287 243 252 249 229 240 249 203 215 217 221 215 222 225 240 251 237 249 240 247 249 254 249 231
358 355 351 349 349 348 349 350 349 349 351 351 351 346 335 325 310 328 66 352 345 352 281 276 215 277 222 248 266 242 240 214 225 232 227 234 233 231 221 242 238 244 234 249 256 248 249
352 350 349 348 347 344 341 344 345 347 350 351 351 344 329 330 322 338 332 326 326 261 309 82 153 68 188 209 314 243 220 206 231 227 237 242 235 234 243 232 231 245 243 251 249 257 258
345 346 347 342 341 343 341 338 341 343 346 348 345 337 324 336 296 333 323 309 264 19 248 239 232 239 225 231 249 275 265 226 236 243 241 246 250 233 244 233 237 240 242 245 236 237 251
340 341 341 343 343 343 341 338 338 339 341 341 336 324 314 311 321 314 315 277 231 190 298 267 263 255 259 262 277 238 254 226 225 230 238 244 240 248 230 250 235 232 230 232 235 232 242
342 335 337 336 339 341 337 335 335 336 339 340 328 315 316 295 309 311 300 234 212 244 256 278 287 282 275 282 281 274 265 254 231 240 248 240 243 229 235 228 238 224 226 229 227 229 238
335 332 330 330 337 339 343 330 329 331 335 339 311 324 304 304 292 288 259 222 231 252 281 312 319 299 280 263 256 266 271 269 254 237 240 248 252 239 223 222 228 230 225 229 241 257 259
327 324 325 324 331 334 337 342 327 326 328 339 314 308 274 332 250 250 232 235 248 273 318 313 293 284 280 281 273 261 256 260 264 254 251 241 260 254 250 215 218 236 220 224 231 238 250
319 323 324 318 322 330 331 335 340 336 329 320 297 305 98 133 199 233 225 237 281 288 301 294 287 277 272 275 270 267 266 265 258 259 254 255 238 253 250 232 217 222 233 225 228 229 242
308 312 317 312 316 320 323 327 334 331 332 284 276 263 112 155 229 225 242 255 281 276 277 276 275 280 271 269 278 274 261 259 259 261 250 252 246 245 243 247 219 233 221 229 218 231 234
305 305 306 310 308 310 315 315 317 322 330 315 260 263 226 221 251 252 263 267 265 274 275 278 278 272 269 267 267 262 264 268 266 263 260 251 246 237 244 240 229 220 236 223 230 228 233
303 305 302 299 301 306 306 305 305 306 307 303 273 271 243 220 246 264 272 273 277 277 279 278 272 273 270 260 257 260 270 254 262 255 265 262 246 239 231 235 227 222 232 235 218 231 233
296 297 297 299 296 295 299 299 290 294 295 288 238 247 253 267 253 246 252 262 274 280 280 278 274 265 260 265 260 254 262 260 263 273 274 262 249 251 243 237 237 228 220 230 234 226 226
290 290 290 291 294 291 289 290 284 278 290 269 265 257 259 265 272 270 268 269 275 278 278 273 265 276 269 266 272 261 255 251 254 278 338 289 244 241 246 242 235 243 228 215 230 234 226
289 287 289 290 291 290 288 290 282 273 262 262 258 267 266 270 271 269 266 270 272 276 274 266 272 279 277 270 262 258 259 263 258 271 290 292 279 231 232 239 233 236 238 234 222 233 232
289 291 286 283 289 288 289 288 284 274 257 263 258 272 268 268 266 264 264 265 269 271 273 275 279 267 265 283 286 279 274 267 268 245 263 268 277 275 227 231 232 236 231 237 237 229 234
287 288 287 283 286 288 287 284 281 278 270 264 269 258 259 264 262 271 270 267 265 269 266 269 268 272 293 280 278 262 253 249 253 240 245 252 263 272 238 231 236 225 226 230 229 237 228
285 284 285 283 280 282 282 282 280 277 275 269 267 260 259 273 270 278 270 266 268 272 278 274 279 294 309 262 245 246 253 221 225 235 237 248 246 252 248 226 226 224 218 233 227 242 236
281 281 284 288 279 281 283 282 281 276 275 271 269 268 251 261 277 270 258 260 264 270 271 284 291 289 260 266 237 241 238 243 218 216 218 213 229 234 233 247 218 229 221 211 218 237 221
285 282 281 285 283 279 280 281 281 279 276 274 269 260 235 261 276 259 245 247 260 261 269 281 289 267 255 255 220 230 217 217 229 233 220 206 204 213 224 224 222 212 145 197 221 230 240
280 280 280 281 280 280 278 277 281 279 272 275 273 271 255 260 266 269 249 258 265 268 270 270 259 273 253 301 246 254 234 216 204 222 225 206 204 233 224 208 54 18 358 64 250 187 197